• In Hungary
  • List of Countries
  • For 7 days
  • Water Temperature
  • Satellite Maps
  • Weather Map
  • News
  • Weather Widgets
  • user-avatar
    Login

    Hourly Weather Gurzuf

    Today, 23 September, Sunday

    Time Temperature Precipitation Wind Pressure Humidity
    00:00 +16°C° 0 mm 2 mps 702 mmHg 70%
    01:00 +16°C° 0 mm 2 mps 702 mmHg 70%
    02:00 +16°C° 0 mm 2 mps 702 mmHg 71%
    03:00 +15°C° 0 mm 2 mps 702 mmHg 71%
    04:00 +14°C° 0 mm 3 mps 702 mmHg 72%
    05:00 +14°C° 0 mm 3 mps 702 mmHg 73%
    06:00 +16°C° 0 mm 3 mps 702 mmHg 67%
    07:00 +18°C° 0 mm 3 mps 703 mmHg 62%
    08:00 +19°C° 0 mm 3 mps 703 mmHg 56%
    09:00 +20°C° 0 mm 3 mps 703 mmHg 55%
    10:00 +21°C° 0 mm 3 mps 703 mmHg 53%
    11:00 +22°C° 0 mm 4 mps 704 mmHg 51%
    12:00 +22°C° 0 mm 4 mps 704 mmHg 53%
    13:00 +22°C° 0 mm 4 mps 704 mmHg 55%
    14:00 +21°C° 0 mm 4 mps 704 mmHg 57%
    15:00 +20°C° 0 mm 4 mps 704 mmHg 61%
    16:00 +19°C° 0 mm 4 mps 704 mmHg 64%
    17:00 +18°C° 0 mm 4 mps 704 mmHg 68%
    18:00 +17°C° 0 mm 4 mps 704 mmHg 73%
    19:00 +14°C° 0 mm 4 mps 704 mmHg 78%
    20:00 +13°C° 0 mm 4 mps 705 mmHg 82%
    21:00 +13°C° 0 mm 4 mps 705 mmHg 82%
    22:00 +12°C° 0 mm 3 mps 705 mmHg 82%
    23:00 +12°C° 0 mm 3 mps 705 mmHg 82%

    Tomorrow, 24 September, Monday

    Time Temperature Precipitation Wind Pressure Humidity
    00:00 +12°C° 0 mm 3 mps 704 mmHg 80%
    01:00 +11°C° 0 mm 3 mps 704 mmHg 79%
    02:00 +11°C° 0 mm 3 mps 704 mmHg 77%
    03:00 +11°C° 0 mm 3 mps 704 mmHg 78%
    04:00 +11°C° 0 mm 3 mps 703 mmHg 79%
    05:00 +11°C° 0 mm 4 mps 703 mmHg 80%
    06:00 +12°C° 0 mm 4 mps 703 mmHg 75%
    07:00 +14°C° 0 mm 4 mps 703 mmHg 70%
    08:00 +15°C° 0 mm 4 mps 703 mmHg 65%
    09:00 +18°C° 0 mm 4 mps 703 mmHg 61%
    10:00 +19°C° 0 mm 4 mps 703 mmHg 57%
    11:00 +20°C° 0 mm 4 mps 702 mmHg 53%
    12:00 +21°C° 0 mm 4 mps 702 mmHg 55%
    13:00 +21°C° 0 mm 4 mps 701 mmHg 56%
    14:00 +21°C° 0 mm 4 mps 701 mmHg 58%
    15:00 +20°C° 0 mm 4 mps 700 mmHg 64%
    16:00 +20°C° 0 mm 4 mps 700 mmHg 70%
    17:00 +19°C° 0 mm 4 mps 699 mmHg 76%
    18:00 +18°C° 0 mm 4 mps 699 mmHg 78%
    19:00 +17°C° 0 mm 4 mps 699 mmHg 81%
    20:00 +17°C° 0 mm 4 mps 699 mmHg 84%
    21:00 +16°C° 0 mm 3 mps 699 mmHg 83%
    22:00 +16°C° 0 mm 3 mps 699 mmHg 83%
    23:00 +16°C° 0 mm 3 mps 699 mmHg 82%

    Day after tomorrow, 25 September, Tuesday

    Time Temperature Precipitation Wind Pressure Humidity
    00:00 +14°C° 0 mm 4 mps 700 mmHg 81%
    01:00 +13°C° 0 mm 6 mps 700 mmHg 80%
    02:00 +10°C° 0 mm 7 mps 700 mmHg 79%
    03:00 +9°C° 0.1 mm 7 mps 700 mmHg 79%
    04:00 +9°C° 0.1 mm 7 mps 701 mmHg 80%
    05:00 +8°C° 0.1 mm 7 mps 701 mmHg 81%
    06:00 +8°C° 0 mm 6 mps 701 mmHg 79%
    07:00 +8°C° 0 mm 6 mps 702 mmHg 77%
    08:00 +8°C° 0 mm 6 mps 702 mmHg 74%
    09:00 +9°C° 0.1 mm 6 mps 703 mmHg 70%
    10:00 +10°C° 0.1 mm 6 mps 704 mmHg 65%
    11:00 +11°C° 0.1 mm 6 mps 704 mmHg 60%
    12:00 +10°C° 0 mm 6 mps 704 mmHg 59%
    13:00 +10°C° 0 mm 6 mps 704 mmHg 57%
    14:00 +10°C° 0 mm 6 mps 704 mmHg 55%
    15:00 +9°C° 0 mm 6 mps 705 mmHg 55%
    16:00 +9°C° 0 mm 6 mps 705 mmHg 55%
    17:00 +9°C° 0 mm 6 mps 705 mmHg 55%
    18:00 +8°C° 0.1 mm 6 mps 705 mmHg 60%
    19:00 +7°C° 0.1 mm 5 mps 706 mmHg 66%
    20:00 +6°C° 0.1 mm 5 mps 706 mmHg 71%
    21:00 +6°C° 0.1 mm 5 mps 706 mmHg 72%
    22:00 +5°C° 0.1 mm 5 mps 706 mmHg 73%
    23:00 +5°C° 0.1 mm 5 mps 706 mmHg 73%

    26 September, Wednesday

    Time Temperature Precipitation Wind Pressure Humidity
    00:00 +5°C° 0 mm 5 mps 707 mmHg 74%
    01:00 +3°C° 0 mm 5 mps 707 mmHg 75%
    02:00 +3°C° 0 mm 5 mps 707 mmHg 76%
    03:00 +2°C° 0 mm 5 mps 707 mmHg 76%
    04:00 +2°C° 0 mm 5 mps 707 mmHg 76%
    05:00 +1°C° 0 mm 6 mps 708 mmHg 76%
    06:00 +2°C° 0 mm 6 mps 708 mmHg 71%
    07:00 +3°C° 0 mm 6 mps 709 mmHg 65%
    08:00 +4°C° 0 mm 6 mps 709 mmHg 59%
    09:00 +5°C° 0 mm 6 mps 709 mmHg 54%
    10:00 +8°C° 0 mm 5 mps 710 mmHg 48%
    11:00 +9°C° 0 mm 5 mps 710 mmHg 43%
    12:00 +9°C° 0 mm 5 mps 710 mmHg 42%
    13:00 +9°C° 0 mm 5 mps 710 mmHg 40%
    14:00 +9°C° 0 mm 5 mps 710 mmHg 39%
    15:00 +9°C° 0 mm 5 mps 710 mmHg 42%
    16:00 +8°C° 0 mm 5 mps 710 mmHg 45%
    17:00 +7°C° 0 mm 5 mps 710 mmHg 48%
    18:00 +6°C° 0 mm 5 mps 710 mmHg 52%
    19:00 +5°C° 0 mm 5 mps 710 mmHg 55%
    20:00 +3°C° 0 mm 5 mps 711 mmHg 58%
    21:00 +3°C° 0 mm 5 mps 711 mmHg 59%
    22:00 +3°C° 0 mm 5 mps 711 mmHg 60%
    23:00 +2°C° 0 mm 5 mps 711 mmHg 61%

    27 September, Thursday

    Time Temperature Precipitation Wind Pressure Humidity
    00:00 +3°C° 0 mm 4 mps 711 mmHg 63%
    01:00 +3°C° 0 mm 4 mps 710 mmHg 65%
    02:00 +3°C° 0 mm 4 mps 710 mmHg 67%
    03:00 +1°C° 0 mm 4 mps 710 mmHg 69%
    04:00 +1°C° 0 mm 4 mps 710 mmHg 72%
    05:00 +1°C° 0 mm 4 mps 710 mmHg 74%
    06:00 +3°C° 0 mm 4 mps 710 mmHg 69%
    07:00 +5°C° 0 mm 4 mps 710 mmHg 64%
    08:00 +6°C° 0 mm 4 mps 710 mmHg 59%
    09:00 +8°C° 0 mm 4 mps 710 mmHg 53%
    10:00 +10°C° 0 mm 3 mps 710 mmHg 46%
    11:00 +12°C° 0 mm 3 mps 710 mmHg 40%
    12:00 +13°C° 0 mm 3 mps 710 mmHg 38%
    13:00 +13°C° 0 mm 3 mps 709 mmHg 36%
    14:00 +15°C° 0 mm 2 mps 709 mmHg 35%
    15:00 +13°C° 0 mm 2 mps 709 mmHg 38%
    16:00 +12°C° 0 mm 2 mps 708 mmHg 42%
    17:00 +10°C° 0 mm 2 mps 708 mmHg 46%
    18:00 +9°C° 0 mm 2 mps 708 mmHg 48%
    19:00 +8°C° 0 mm 2 mps 707 mmHg 51%
    20:00 +7°C° 0 mm 2 mps 707 mmHg 54%
    21:00 +7°C° 0 mm 2 mps 707 mmHg 56%
    22:00 +7°C° 0 mm 2 mps 707 mmHg 58%
    23:00 +6°C° 0 mm 2 mps 706 mmHg 59%

    28 September, Friday

    Time Temperature Precipitation Wind Pressure Humidity
    00:00 +6°C° 0 mm 2 mps 706 mmHg 60%
    01:00 +6°C° 0 mm 2 mps 706 mmHg 61%
    02:00 +6°C° 0 mm 2 mps 705 mmHg 62%
    03:00 +5°C° 0 mm 3 mps 705 mmHg 61%
    04:00 +5°C° 0 mm 3 mps 705 mmHg 61%
    05:00 +5°C° 0 mm 3 mps 704 mmHg 61%
    06:00 +8°C° 0 mm 3 mps 704 mmHg 54%
    07:00 +10°C° 0 mm 3 mps 705 mmHg 47%
    08:00 +11°C° 0 mm 4 mps 705 mmHg 41%
    09:00 +13°C° 0 mm 4 mps 705 mmHg 36%
    10:00 +14°C° 0 mm 4 mps 705 mmHg 32%
    11:00 +17°C° 0 mm 4 mps 705 mmHg 27%
    12:00 +17°C° 0 mm 3 mps 704 mmHg 27%
    13:00 +18°C° 0 mm 3 mps 704 mmHg 27%
    14:00 +18°C° 0 mm 3 mps 703 mmHg 27%
    15:00 +17°C° 0 mm 3 mps 703 mmHg 32%
    16:00 +16°C° 0 mm 3 mps 703 mmHg 37%
    17:00 +14°C° 0 mm 3 mps 702 mmHg 42%
    18:00 +13°C° 0 mm 3 mps 702 mmHg 45%
    19:00 +12°C° 0 mm 3 mps 702 mmHg 47%
    20:00 +10°C° 0 mm 3 mps 703 mmHg 50%
    21:00 +10°C° 0 mm 3 mps 702 mmHg 50%
    22:00 +10°C° 0 mm 3 mps 702 mmHg 50%
    23:00 +10°C° 0 mm 3 mps 702 mmHg 49%
    Show more